Location: Jodlow
(50.1500°N, 16.7500°E)
Time: 20:49:04
(UTC+02:00)

O/OREOS (USA 219) - Pass Details

Date: 09 March 2024
Orbit: 621 x 646 km, 72.0° (Epoch: 22 May)

Event Time Altitude Azimuth Distance (km) Brightness Sun altitude
Exits shadow 02:08:53 12° 80° (E) 1,941 ? -37.2°
Drops below altitude 10° 02:09:38 10° 71° (ENE) 2,050 ? -37.1°
Sets 02:13:07 0° 44° (NE) 2,968 ? -36.7°
